Change the Weather History Date:

Friday, December 14, 2012

  Actual Average (KMFE) Record (KMFE)
Temperature  
Mean Temperature 73 °F 62 °F  
Max Temperature 79 °F 72 °F 89 °F (1950)
Min Temperature 67 °F 52 °F 29 °F (1903)
Degree Days  
Heating Degree Days 0 6  
Month to date heating degree days 67  
Since 1 July heating degree days 127  
Cooling Degree Days 8 3  
Month to date cooling degree days 44  
Year to date cooling degree days 4413  
Growing Degree Days 23 (Base 50)    
Moisture  
Dew Point 64 °F    
Average Humidity 72    
Maximum Humidity 83    
Minimum Humidity 60    
Precipitation  
Precipitation 0.00 in 0.04 in 0.51 in (1960)
Month to date precipitation 0.50  
Year to date precipitation 21.51  
Sea Level Pressure  
Sea Level Pressure 30.00 in    
Wind  
Wind Speed 9 mph (SE)    
Max Wind Speed 22 mph    
Max Gust Speed 30 mph    
Visibility 10 miles    
Events Rain    
T = Trace of Precipitation, MM = Missing Value Source: NWS Daily Summary

Daily Weather History Graph

Daily Weather History Graph

Search for Another Location

Airport or City:

Trip Planner

Search our weather history database for the weather conditions in past years. The results will help you decide how hot, cold, wet, or windy it might be!

Date:

Astronomy

Dec. 14, 2012 Rise Set
Actual Time 7:11 AM CST 5:42 PM CST
Civil Twilight 6:46 AM CST 6:07 PM CST
Nautical Twilight 6:17 AM CST 6:36 PM CST
Astronomical Twilight 5:49 AM CST 7:04 PM CST
Moon 8:22 AM CST (12/14) 7:30 PM CST (12/14)
Length of Visible Light 11h 21m
Length of Day
10h 30m
Waxing Crescent, 3% of the Moon is Illuminated
Dec 14
Waxing Crescent
Dec 19
First Quarter
Dec 28
Full
Jan 4
Last Quarter
Jan 11
New

Hourly Weather History & Observations

Time (CST) Temp. Dew Point Humidity Pressure Visibility Wind Dir Wind Speed Gust Speed Precip Events Conditions
12:15 AM 68.9 °F 59.0 °F 71% 30.11 in 10.0 mi ESE 4.6 mph - N/A   Overcast
12:35 AM 68.9 °F 59.2 °F 71% 30.10 in 10.0 mi ESE 4.6 mph - N/A   Overcast
12:55 AM 68.9 °F 59.2 °F 71% 30.10 in 10.0 mi ESE 4.6 mph - N/A   Overcast
1:15 AM 68.9 °F 59.5 °F 72% 30.10 in 10.0 mi ESE 5.8 mph - N/A   Overcast
1:35 AM 68.9 °F 59.5 °F 72% 30.09 in 10.0 mi ESE 5.8 mph - N/A   Overcast
1:55 AM 68.9 °F 59.7 °F 72% 30.09 in 10.0 mi ESE 4.6 mph - N/A   Overcast
2:15 AM 68.9 °F 59.9 °F 73% 30.09 in 10.0 mi SE 4.6 mph - N/A   Overcast
2:35 AM 68.9 °F 59.9 °F 73% 30.08 in 10.0 mi ESE 6.9 mph - N/A   Overcast
2:55 AM 68.9 °F 59.9 °F 73% 30.07 in 10.0 mi ESE 5.8 mph - N/A   Mostly Cloudy
3:15 AM 68.4 °F 59.9 °F 74% 30.07 in 10.0 mi ESE 5.8 mph - N/A   Overcast
3:35 AM 68.4 °F 59.9 °F 74% 30.07 in 10.0 mi SE 5.8 mph - N/A   Overcast
3:55 AM 68.9 °F 60.1 °F 73% 30.06 in 10.0 mi ESE 5.8 mph - N/A   Overcast
4:15 AM 68.5 °F 60.1 °F 74% 30.06 in 10.0 mi East 5.8 mph - N/A   Overcast
4:35 AM 68.4 °F 60.3 °F 75% 30.06 in 10.0 mi ESE 4.6 mph - N/A   Overcast
5:15 AM 68.2 °F 60.8 °F 77% 30.05 in 10.0 mi ESE 4.6 mph - N/A   Mostly Cloudy
5:35 AM 68.0 °F 60.8 °F 78% 30.05 in 10.0 mi ESE 5.8 mph - N/A   Scattered Clouds
5:55 AM 67.8 °F 60.8 °F 78% 30.06 in 10.0 mi ESE 3.5 mph - N/A   Clear
6:15 AM 67.6 °F 60.8 °F 79% 30.06 in 10.0 mi ESE 3.5 mph - N/A   Clear
6:35 AM 67.6 °F 60.8 °F 79% 30.06 in 10.0 mi SE 3.5 mph - N/A   Clear
6:55 AM 68.0 °F 61.0 °F 78% 30.07 in 10.0 mi SE 3.5 mph - N/A   Clear
7:15 AM 68.7 °F 61.3 °F 77% 30.08 in 10.0 mi SE 3.5 mph - N/A   Mostly Cloudy
7:35 AM 69.4 °F 61.9 °F 77% 30.08 in 10.0 mi SE 4.6 mph - N/A Rain Light Rain
7:55 AM 69.8 °F 62.2 °F 77% 30.08 in 10.0 mi SE 4.6 mph - N/A Rain Light Rain
8:15 AM 70.0 °F 62.8 °F 78% 30.09 in 10.0 mi SE 4.6 mph - N/A   Overcast
8:35 AM 70.9 °F 63.0 °F 76% 30.10 in 10.0 mi SE 5.8 mph - N/A   Overcast
8:55 AM 72.0 °F 63.1 °F 74% 30.09 in 10.0 mi SE 9.2 mph - N/A   Overcast
9:15 AM 72.5 °F 63.1 °F 72% 30.09 in 10.0 mi SE 9.2 mph 19.6 mph N/A   Overcast
9:35 AM 73.2 °F 63.3 °F 71% 30.10 in 10.0 mi SE 8.1 mph - N/A   Overcast
9:55 AM 75.2 °F 63.9 °F 68% 30.09 in 10.0 mi SE 12.7 mph 18.4 mph N/A   Overcast
10:15 AM 76.1 °F 63.5 °F 65% 30.09 in 10.0 mi SSE 16.1 mph 23.0 mph N/A   Overcast
10:35 AM 75.6 °F 63.5 °F 66% 30.09 in 10.0 mi SSE 15.0 mph 20.7 mph N/A   Overcast
10:55 AM 77.0 °F 63.7 °F 63% 30.07 in 10.0 mi SSE 18.4 mph 24.2 mph N/A   Overcast
11:15 AM 77.7 °F 63.5 °F 61% 30.06 in 10.0 mi SSE 17.3 mph 26.5 mph N/A   Overcast
11:35 AM 77.9 °F 63.3 °F 61% 30.06 in 10.0 mi SSE 17.3 mph 23.0 mph N/A   Overcast
11:55 AM 77.2 °F 63.1 °F 62% 30.05 in 10.0 mi SSE 16.1 mph 25.3 mph N/A   Overcast
12:15 PM 77.9 °F 63.5 °F 61% 30.03 in 10.0 mi SSE 11.5 mph 16.1 mph N/A   Overcast
12:35 PM 77.4 °F 63.5 °F 62% 30.02 in 10.0 mi SSE 15.0 mph 24.2 mph N/A   Overcast
12:55 PM 77.0 °F 63.9 °F 64% 30.01 in 10.0 mi SSE 17.3 mph 21.9 mph N/A   Overcast
1:15 PM 77.9 °F 64.4 °F 63% 29.99 in 10.0 mi South 17.3 mph 24.2 mph N/A   Overcast
1:35 PM 79.2 °F 64.4 °F 60% 29.97 in 10.0 mi SSE 18.4 mph 24.2 mph N/A   Overcast
1:55 PM 77.7 °F 64.4 °F 63% 29.96 in 10.0 mi SE 16.1 mph 21.9 mph N/A   Overcast
2:15 PM 78.8 °F 64.6 °F 62% 29.94 in 10.0 mi SSE 20.7 mph 26.5 mph N/A   Overcast
2:35 PM 78.8 °F 64.6 °F 62% 29.94 in 10.0 mi SSE 16.1 mph 25.3 mph N/A   Overcast
2:55 PM 78.3 °F 64.6 °F 63% 29.93 in 10.0 mi SE 21.9 mph 26.5 mph N/A   Overcast
3:15 PM 78.1 °F 64.6 °F 63% 29.92 in 10.0 mi SSE 16.1 mph 24.2 mph N/A   Overcast
3:35 PM 77.7 °F 64.8 °F 64% 29.90 in 10.0 mi SSE 19.6 mph 29.9 mph N/A   Overcast
3:55 PM 77.5 °F 64.9 °F 65% 29.90 in 10.0 mi SSE 16.1 mph 28.8 mph N/A   Overcast
4:15 PM 77.2 °F 65.3 °F 67% 29.90 in 10.0 mi SSE 17.3 mph 27.6 mph N/A   Scattered Clouds
4:35 PM 76.6 °F 65.3 °F 68% 29.90 in 10.0 mi SSE 18.4 mph 24.2 mph N/A   Clear
4:55 PM 76.3 °F 65.5 °F 69% 29.90 in 10.0 mi SSE 18.4 mph 21.9 mph N/A   Scattered Clouds
5:15 PM 75.6 °F 65.8 °F 72% 29.91 in 10.0 mi SSE 16.1 mph 25.3 mph N/A   Mostly Cloudy
5:35 PM 75.4 °F 65.8 °F 72% 29.88 in 10.0 mi SSE 19.6 mph 26.5 mph N/A   Scattered Clouds
5:55 PM 75.2 °F 66.0 °F 73% 29.88 in 10.0 mi SSE 13.8 mph 26.5 mph N/A   Scattered Clouds
6:15 PM 74.7 °F 65.8 °F 74% 29.90 in 10.0 mi SSE 13.8 mph 25.3 mph N/A   Clear
6:35 PM 74.3 °F 66.2 °F 76% 29.90 in 10.0 mi SSE 17.3 mph 23.0 mph N/A   Mostly Cloudy
6:55 PM 74.3 °F 66.4 °F 76% 29.90 in 10.0 mi SSE 17.3 mph 23.0 mph N/A   Overcast
7:15 PM 74.3 °F 66.2 °F 76% 29.90 in 10.0 mi SSE 15.0 mph 23.0 mph N/A   Mostly Cloudy
7:55 PM 73.8 °F 66.2 °F 77% 29.92 in 10.0 mi SSE 11.5 mph 18.4 mph N/A   Mostly Cloudy
8:15 PM 73.8 °F 66.2 °F 77% 29.92 in 10.0 mi SSE 10.4 mph 16.1 mph N/A   Mostly Cloudy
8:35 PM 73.6 °F 66.2 °F 78% 29.92 in 10.0 mi SSE 11.5 mph 18.4 mph N/A   Overcast
8:55 PM 73.9 °F 66.4 °F 77% 29.93 in 10.0 mi SSE 11.5 mph - N/A   Overcast
9:15 PM 73.9 °F 66.4 °F 77% 29.92 in 10.0 mi SSE 11.5 mph - N/A   Overcast
9:35 PM 73.8 °F 66.4 °F 78% 29.93 in 10.0 mi SSE 10.4 mph - N/A   Overcast
9:55 PM 73.6 °F 66.6 °F 79% 29.93 in 10.0 mi SSE 11.5 mph - N/A   Overcast
10:15 PM 73.4 °F 66.7 °F 80% 29.92 in 10.0 mi SSE 11.5 mph - N/A   Mostly Cloudy
10:35 PM 73.8 °F 67.1 °F 80% 29.92 in 10.0 mi SSE 12.7 mph 16.1 mph N/A   Mostly Cloudy
10:55 PM 73.9 °F 67.5 °F 80% 29.92 in 10.0 mi South 10.4 mph - N/A   Overcast
11:15 PM 73.6 °F 67.6 °F 82% 29.91 in 10.0 mi SSE 13.8 mph - N/A   Mostly Cloudy
11:35 PM 73.6 °F 67.8 °F 82% 29.91 in 10.0 mi SSE 15.0 mph 18.4 mph N/A   Scattered Clouds
11:55 PM 73.4 °F 68.0 °F 83% 29.91 in 10.0 mi SSE 11.5 mph 17.3 mph N/A   Clear